| time (UTC) | temp C | wind direction | speed KPH | gust KPH | rain 1hr cm | rain 24hr cm | rain mn cm | humidity % | barometer mb |
| 20260506114045 | 9 | 305 | 8.0 | 16.1 | 0.00 | 0.00 | 0.00 | 30 | 1012.7 |
| 20260506113044 | 9 | 288 | 8.0 | 16.1 | 0.00 | 0.00 | 0.00 | 30 | 1012.8 |
| 20260506112103 | 8 | 318 | 9.7 | 16.1 | 0.00 | 0.00 | 0.00 | 29 | 1012.9 |
| 20260506111042 | 8 | 322 | 9.7 | 19.3 | 0.00 | 0.00 | 0.00 | 31 | 1012.8 |
| 20260506105040 | 10 | 313 | 12.9 | 22.5 | 0.00 | 0.00 | 0.00 | 30 | 1012.7 |
| 20260506104038 | 10 | 309 | 11.3 | 20.9 | 0.00 | 0.00 | 0.00 | 28 | 1012.7 |
| 20260506103037 | 10 | 266 | 11.3 | 25.7 | 0.00 | 0.00 | 0.00 | 28 | 1012.6 |
| 20260506102056 | 10 | 255 | 11.3 | 29.0 | 0.00 | 0.00 | 0.00 | 25 | 1012.6 |
| 20260506101036 | 9 | 265 | 12.9 | 29.0 | 0.00 | 0.00 | 0.00 | 26 | 1012.6 |
| 20260506100055 | 8 | 284 | 9.7 | 17.7 | 0.00 | 0.00 | 0.00 | 32 | 1012.6 |
| 20260506095033 | 8 | 294 | 12.9 | 24.1 | 0.00 | 0.00 | 0.00 | 31 | 1012.7 |
| 20260506094052 | 9 | 316 | 9.7 | 17.7 | 0.00 | 0.00 | 0.00 | 31 | 1012.5 |
| 20260506093053 | 8 | 305 | 11.3 | 20.9 | 0.00 | 0.00 | 0.00 | 31 | 1012.4 |
| 20260506092031 | 8 | 292 | 12.9 | 20.9 | 0.00 | 0.00 | 0.00 | 32 | 1012.4 |
| 20260506091030 | 8 | 307 | 11.3 | 20.9 | 0.00 | 0.00 | 0.00 | 34 | 1012.3 |
| 20260506090109 | 9 | 259 | 11.3 | 19.3 | 0.00 | 0.00 | 0.00 | 32 | 1012.3 |
| 20260506085107 | 8 | 279 | 11.3 | 27.4 | 0.00 | 0.00 | 0.00 | 33 | 1012.4 |
| 20260506084026 | 8 | 275 | 9.7 | 17.7 | 0.00 | 0.00 | 0.00 | 32 | 1012.3 |
| 20260506083027 | 8 | 295 | 8.0 | 19.3 | 0.00 | 0.00 | 0.00 | 34 | 1012.3 |
| 20260506082046 | 7 | 309 | 8.0 | 20.9 | 0.00 | 0.00 | 0.00 | 37 | 1012.3 |
| 20260506081024 | 7 | 281 | 8.0 | 17.7 | 0.00 | 0.00 | 0.00 | 40 | 1012.2 |
| 20260506080104 | 8 | 271 | 11.3 | 24.1 | 0.00 | 0.00 | 0.00 | 38 | 1012.1 |
| 20260506073020 | 7 | 297 | 9.7 | 17.7 | 0.00 | 0.00 | 0.00 | 43 | 1011.9 |
| 20260506072039 | 7 | 292 | 8.0 | 17.7 | 0.00 | 0.00 | 0.00 | 47 | 1011.9 |
| 20260506071020 | 7 | 273 | 11.3 | 20.9 | 0.00 | 0.00 | 0.00 | 47 | 1011.8 |
| 20260506062043 | 6 | 320 | 8.0 | 14.5 | 0.00 | 0.00 | 0.00 | 62 | 1011.7 |
| 20260506061043 | 6 | 290 | 8.0 | 16.1 | 0.00 | 0.00 | 0.00 | 62 | 1011.6 |
| 20260506051058 | 3 | 287 | 9.7 | 16.1 | 0.00 | 0.00 | 0.00 | 69 | 1010.9 |
| 20260506045036 | 3 | 265 | 9.7 | 16.1 | 0.00 | 0.00 | 0.00 | 72 | 1010.8 |
| 20260506044034 | 3 | 266 | 8.0 | 14.5 | 0.00 | 0.00 | 0.00 | 74 | 1010.6 |
| 20260506043034 | 2 | 268 | 8.0 | 12.9 | 0.00 | 0.00 | 0.00 | 75 | 1010.5 |
| 20260506042033 | 2 | 267 | 6.4 | 12.9 | 0.00 | 0.00 | 0.00 | 76 | 1010.4 |
| 20260506041031 | 2 | 266 | 8.0 | 11.3 | 0.00 | 0.00 | 0.00 | 77 | 1010.3 |
| 20260506040031 | 2 | 273 | 6.4 | 11.3 | 0.00 | 0.00 | 0.00 | 78 | 1010.2 |
| 20260506035050 | 1 | 270 | 8.0 | 12.9 | 0.00 | 0.00 | 0.00 | 79 | 1010.1 |
| 20260506034026 | 1 | 271 | 8.0 | 14.5 | 0.00 | 0.00 | 0.00 | 80 | 1010.0 |
| 20260506033027 | 1 | 266 | 8.0 | 14.5 | 0.00 | 0.00 | 0.00 | 81 | 1009.9 |
| 20260506032025 | 1 | 262 | 8.0 | 12.9 | 0.00 | 0.00 | 0.00 | 81 | 1009.7 |
| 20260506031023 | 1 | 257 | 9.7 | 14.5 | 0.00 | 0.00 | 0.00 | 82 | 1009.6 |
| 20260506030024 | 1 | 264 | 8.0 | 12.9 | 0.00 | 0.00 | 0.00 | 82 | 1009.6 |
| 20260506025023 | 0 | 270 | 6.4 | 12.9 | 0.00 | 0.00 | 0.00 | 83 | 1009.5 |
| 20260506024022 | 0 | 283 | 4.8 | 11.3 | 0.00 | 0.00 | 0.00 | 84 | 1009.4 |
| 20260506023020 | 0 | 284 | 4.8 | 12.9 | 0.00 | 0.00 | 0.00 | 84 | 1009.3 |
| 20260506022019 | 0 | 276 | 6.4 | 12.9 | 0.00 | 0.00 | 0.00 | 83 | 1009.2 |
| 20260506021038 | 0 | 265 | 8.0 | 11.3 | 0.00 | 0.00 | 0.00 | 82 | 1009.1 |
| 20260506020016 | 0 | 254 | 9.7 | 14.5 | 0.00 | 0.00 | 0.00 | 81 | 1009.0 |
| 20260506015017 | 0 | 255 | 8.0 | 14.5 | 0.00 | 0.00 | 0.00 | 80 | 1009.0 |
| 20260506014046 | 0 | 254 | 6.4 | 12.9 | 0.00 | 0.00 | 0.00 | 80 | 1008.9 |
| 20260506013104 | 0 | 259 | 6.4 | 11.3 | 0.00 | 0.00 | 0.00 | 80 | 1008.8 |
| 20260506012102 | 0 | 262 | 6.4 | 12.9 | 0.00 | 0.00 | 0.00 | 80 | 1008.7 |
| 20260506011043 | 0 | 264 | 8.0 | 14.5 | 0.00 | 0.00 | 0.00 | 80 | 1008.7 |
| 20260506010041 | 1 | 261 | 9.7 | 17.7 | 0.00 | 0.00 | 0.00 | 79 | 1008.6 |
| 20260506005039 | 1 | 263 | 9.7 | 17.7 | 0.00 | 0.00 | 0.00 | 78 | 1008.5 |
| 20260506004040 | 1 | 263 | 11.3 | 17.7 | 0.00 | 0.00 | 0.00 | 77 | 1008.5 |
| 20260506003038 | 1 | 263 | 9.7 | 16.1 | 0.00 | 0.00 | 0.00 | 77 | 1008.4 |
| 20260506002037 | 1 | 261 | 9.7 | 16.1 | 0.00 | 0.00 | 0.00 | 77 | 1008.3 |
| 20260506001037 | 1 | 263 | 9.7 | 16.1 | 0.00 | 0.00 | 0.00 | 77 | 1008.3 |
| 20260506000116 | 1 | 266 | 8.0 | 16.1 | 0.00 | 0.00 | 0.00 | 76 | 1008.2 |
| 20260505235034 | 1 | 264 | 9.7 | 14.5 | 0.00 | 0.00 | 0.00 | 76 | 1008.2 |
| 20260505234035 | 1 | 267 | 8.0 | 14.5 | 0.00 | 0.00 | 0.00 | 76 | 1008.1 |
| 20260505233033 | 1 | 264 | 9.7 | 17.7 | 0.00 | 0.00 | 0.00 | 76 | 1008.0 |
| 20260505232032 | 1 | 262 | 9.7 | 17.7 | 0.00 | 0.00 | 0.00 | 75 | 1008.0 |
| 20260505231030 | 1 | 261 | 11.3 | 16.1 | 0.00 | 0.00 | 0.00 | 75 | 1008.0 |
| 20260505230030 | 1 | 261 | 11.3 | 16.1 | 0.00 | 0.00 | 0.00 | 75 | 1008.0 |
| 20260505225029 | 1 | 262 | 9.7 | 16.1 | 0.00 | 0.00 | 0.00 | 74 | 1007.9 |
| 20260505224028 | 1 | 264 | 9.7 | 14.5 | 0.00 | 0.00 | 0.00 | 74 | 1007.8 |
| 20260505223027 | 1 | 265 | 8.0 | 14.5 | 0.00 | 0.00 | 0.00 | 73 | 1007.8 |
| 20260505222046 | 2 | 270 | 6.4 | 14.5 | 0.00 | 0.00 | 0.00 | 70 | 1007.8 |
| 20260505221024 | 2 | 272 | 8.0 | 17.7 | 0.00 | 0.00 | 0.00 | 70 | 1007.7 |
| 20260505220024 | 2 | 270 | 8.0 | 14.5 | 0.00 | 0.00 | 0.00 | 70 | 1007.7 |
| 20260505215022 | 2 | 269 | 11.3 | 17.7 | 0.00 | 0.00 | 0.00 | 69 | 1007.6 |
| 20260505214021 | 2 | 265 | 11.3 | 17.7 | 0.00 | 0.00 | 0.00 | 68 | 1007.5 |
| 20260505213021 | 2 | 265 | 11.3 | 17.7 | 0.00 | 0.00 | 0.00 | 68 | 1007.5 |
| 20260505212020 | 2 | 262 | 12.9 | 19.3 | 0.00 | 0.03 | 0.00 | 67 | 1007.4 |
| 20260505211020 | 2 | 262 | 12.9 | 19.3 | 0.00 | 0.08 | 0.00 | 66 | 1007.3 |
| 20260505210018 | 3 | 260 | 11.3 | 17.7 | 0.00 | 0.10 | 0.00 | 66 | 1007.2 |
| 20260505205017 | 3 | 258 | 11.3 | 16.1 | 0.00 | 0.10 | 0.00 | 65 | 1007.1 |
| 20260505204046 | 3 | 259 | 11.3 | 14.5 | 0.00 | 0.10 | 0.00 | 63 | 1006.9 |
| 20260505203046 | 3 | 260 | 11.3 | 17.7 | 0.00 | 0.10 | 0.00 | 61 | 1006.8 |
| 20260505202044 | 3 | 261 | 11.3 | 16.1 | 0.00 | 0.10 | 0.00 | 60 | 1006.8 |
| 20260505201043 | 3 | 262 | 11.3 | 17.7 | 0.00 | 0.10 | 0.00 | 59 | 1006.6 |
| 20260505200042 | 3 | 263 | 11.3 | 17.7 | 0.00 | 0.10 | 0.00 | 58 | 1006.5 |
| 20260505195042 | 4 | 259 | 11.3 | 17.7 | 0.00 | 0.10 | 0.00 | 58 | 1006.5 |
| 20260505194041 | 4 | 260 | 11.3 | 16.1 | 0.00 | 0.10 | 0.00 | 57 | 1006.5 |
| 20260505193040 | 4 | 260 | 11.3 | 16.1 | 0.00 | 0.10 | 0.00 | 56 | 1006.5 |
| 20260505192039 | 5 | 264 | 9.7 | 19.3 | 0.00 | 0.10 | 0.00 | 54 | 1006.4 |
| 20260505191037 | 5 | 265 | 9.7 | 17.7 | 0.00 | 0.10 | 0.00 | 53 | 1006.3 |
| 20260505190035 | 5 | 267 | 11.3 | 20.9 | 0.00 | 0.10 | 0.00 | 52 | 1006.2 |
| 20260505185035 | 5 | 271 | 12.9 | 22.5 | 0.00 | 0.10 | 0.00 | 51 | 1006.2 |
| 20260505184034 | 5 | 272 | 12.9 | 24.1 | 0.00 | 0.10 | 0.00 | 50 | 1006.0 |
| 20260505183033 | 6 | 263 | 12.9 | 20.9 | 0.00 | 0.10 | 0.00 | 50 | 1005.9 |
| 20260505182036 | 6 | 260 | 14.5 | 25.7 | 0.00 | 0.10 | 0.00 | 49 | 1005.8 |
| 20260505181031 | 6 | 256 | 14.5 | 22.5 | 0.00 | 0.10 | 0.00 | 48 | 1005.6 |
| 20260505180032 | 6 | 253 | 14.5 | 27.4 | 0.00 | 0.10 | 0.00 | 47 | 1005.5 |
| 20260505175030 | 6 | 249 | 16.1 | 25.7 | 0.00 | 0.10 | 0.00 | 44 | 1005.5 |
| 20260505174028 | 6 | 242 | 17.7 | 27.4 | 0.00 | 0.10 | 0.00 | 43 | 1005.4 |
| 20260505173027 | 7 | 249 | 17.7 | 29.0 | 0.00 | 0.10 | 0.00 | 41 | 1005.3 |
| 20260505172028 | 7 | 248 | 19.3 | 29.0 | 0.00 | 0.10 | 0.00 | 41 | 1005.2 |
| 20260505171025 | 7 | 246 | 17.7 | 29.0 | 0.00 | 0.10 | 0.00 | 40 | 1005.2 |
| 20260505170025 | 7 | 251 | 19.3 | 30.6 | 0.00 | 0.10 | 0.00 | 41 | 1005.2 |
| 20260505165024 | 8 | 250 | 20.9 | 38.6 | 0.00 | 0.10 | 0.00 | 39 | 1005.2 |
| 20260505164022 | 8 | 241 | 22.5 | 37.0 | 0.00 | 0.10 | 0.00 | 38 | 1005.1 |
| 20260505163022 | 8 | 241 | 20.9 | 35.4 | 0.00 | 0.10 | 0.00 | 38 | 1005.1 |
| 20260505162021 | 7 | 252 | 20.9 | 32.2 | 0.00 | 0.10 | 0.00 | 39 | 1005.0 |
| 20260505161020 | 8 | 253 | 19.3 | 33.8 | 0.00 | 0.10 | 0.00 | 38 | 1004.9 |
| 20260505153015 | 8 | 252 | 19.3 | 33.8 | 0.00 | 0.10 | 0.00 | 39 | 1004.7 |
| 20260505152046 | 8 | 247 | 22.5 | 32.2 | 0.00 | 0.10 | 0.00 | 39 | 1004.6 |
| 20260505151104 | 9 | 253 | 20.9 | 33.8 | 0.00 | 0.10 | 0.00 | 36 | 1004.6 |
| 20260505125031 | 10 | 258 | 16.1 | 30.6 | 0.00 | 0.10 | 0.00 | 39 | 1003.9 |
| 20260505124110 | 9 | 270 | 16.1 | 27.4 | 0.00 | 0.10 | 0.00 | 40 | 1003.9 |
| 20260505123028 | 9 | 274 | 12.9 | 27.4 | 0.00 | 0.10 | 0.00 | 41 | 1003.9 |
| 20260505122029 | 10 | 300 | 14.5 | 25.7 | 0.00 | 0.10 | 0.00 | 41 | 1003.7 |
| 20260505121027 | 10 | 263 | 14.5 | 25.7 | 0.00 | 0.10 | 0.00 | 39 | 1003.7 |
| 20260505120026 | 10 | 269 | 14.5 | 30.6 | 0.00 | 0.10 | 0.00 | 40 | 1003.6 |
| 20260505115024 | 8 | 274 | 16.1 | 30.6 | 0.00 | 0.10 | 0.00 | 41 | 1003.6 |